Dewpoint
70 72 73 75 75 75 75 75 75 75 75 74 74 74 74 74 74 74 73 73 73 73 73 73 72 72 72 72 72 71 71 71 71 71 70 70 69 69 68 68 68 68 67 67 66 66 65 66 66 67 68 67 68 69 71 70 69 69 69 70 70 70 70 70 70 70 70 71 70 70 70 70 70 70 70 70 70 70 69 69 69 68 69 69 69
71 72 74 75 75 75 75 75 75 75 75 74 74 74 74 73 74 73 73 73 73 73 73 73 72 72 72 72 71 71 71 70 70 70 70 69 69 68 68 68 67 67 67 67 67 67 67 67 66 66 67 68 68 68 69 70 70 69 70 70 70 70 70 70 71 70 70 70 70 70 70 70 69 70 70 70 70 70 70 70 70 68 68 69 69
72 72 74 75 75 75 75 75 75 75 75 74 74 74 74 74 74 73 73 73 73 73 73 73 72 72 72 72 71 71 71 70 70 69 69 69 69 67 68 67 67 67 67 67 67 67 67 66 67 66 67 68 68 68 69 70 70 69 69 69 70 70 70 71 71 71 70 70 69 70 69 69 69 69 69 69 69 69 69 69 69 69 67 69 69
71 72 73 74 75 75 75 75 75 74 74 74 74 74 74 74 74 73 73 73 73 73 73 72 72 72 72 72 71 71 70 70 69 69 68 68 68 68 67 67 67 67 67 67 67 67 67 67 67 67 66 67 67 68 68 69 69 69 69 69 69 69 70 70 71 70 70 69 69 68 68 66 67 68 68 68 68 68 68 68 68 68 68 68 68
71 72 73 74 74 75 75 75 75 74 74 74 74 74 74 74 74 74 73 73 72 72 72 72 72 72 72 72 71 71 70 69 69 69 69 68 68 67 67 67 67 67 67 67 68 67 67 68 67 66 67 66 67 67 67 67 67 67 68 68 68 68 68 69 70 70 69 68 67 67 65 65 65 67 68 68 67 67 67 67 67 67 67 67 68
70 71 73 74 74 75 75 75 74 74 74 74 74 74 74 74 74 74 73 73 73 73 72 72 72 72 72 71 71 71 70 69 69 69 68 69 69 67 67 67 68 67 68 68 68 69 68 68 68 67 67 67 67 67 67 66 66 66 67 67 67 67 68 68 68 69 70 69 68 65 64 64 64 65 67 67 67 67 66 66 67 66 66 67 67
70 71 71 72 74 74 75 74 74 74 74 74 74 74 74 74 73 73 73 73 73 72 72 72 72 72 71 71 71 70 70 70 70 68 68 69 70 69 68 68 68 67 67 68 69 70 70 69 68 66 67 67 67 66 66 66 66 66 66 67 67 67 68 67 65 66 67 68 63 62 63 63 63 64 66 66 66 66 66 66 66 66 66 65 66
69 70 70 72 74 74 74 74 74 74 74 74 74 74 74 74 73 73 73 73 73 72 72 72 72 71 71 71 70 70 70 70 70 68 68 69 71 70 68 68 68 68 68 69 70 70 70 70 70 67 66 66 67 66 66 65 65 65 66 66 67 68 67 69 68 69 69 66 63 61 61 62 63 63 66 66 65 64 64 66 65 64 64 65 65
67 69 70 73 74 74 74 74 74 74 74 74 74 74 74 74 74 74 73 73 73 72 72 72 71 71 70 70 70 70 70 70 69 69 68 69 71 71 70 69 68 69 69 70 70 70 70 70 69 69 66 66 66 66 65 65 66 66 66 66 67 68 67 69 70 65 61 60 59 59 60 61 62 63 65 64 63 64 65 65 65 65 65 65 65
66 68 71 73 74 74 74 74 74 74 74 74 74 74 74 73 73 73 73 73 72 72 72 71 71 71 70 70 70 70 70 70 69 69 69 69 70 70 70 69 69 69 69 70 70 70 70 69 69 69 68 66 66 66 65 66 66 66 66 67 67 69 69 70 69 64 61 61 61 62 63 64 62 62 63 63 63 65 64 65 65 64 64 65 64
67 69 71 72 73 73 73 74 74 74 74 74 73 73 73 73 73 73 73 72 72 72 71 71 71 71 70 69 69 70 70 70 70 69 69 70 70 69 69 70 70 71 71 71 70 70 70 70 69 69 69 68 67 66 66 66 66 66 66 67 68 68 68 69 68 61 61 62 62 63 64 65 62 62 63 64 65 64 64 64 64 63 62 63 63
67 68 70 72 74 73 73 73 73 73 73 73 73 73 73 73 73 73 72 72 72 71 71 71 71 71 70 70 70 70 70 70 70 70 70 70 70 70 72 72 72 71 71 70 70 70 70 69 69 69 69 69 68 68 67 66 67 67 67 67 67 67 67 68 67 60 60 60 61 61 61 61 62 62 63 65 64 64 63 63 63 63 63 63 62
68 69 71 72 73 73 73 73 73 73 73 73 73 73 73 73 73 73 72 72 72 72 71 72 71 71 71 71 70 70 70 70 70 71 71 71 71 72 72 72 72 71 70 70 70 70 69 69 69 69 69 69 69 69 68 68 67 67 66 66 66 67 68 69 59 59 59 59 60 60 60 61 60 62 64 64 64 64 63 63 63 63 63 62 62
69 70 71 72 72 74 73 73 73 73 73 73 73 73 73 73 72 72 72 72 72 72 72 72 71 71 71 71 71 71 71 72 71 72 71 72 72 72 72 72 71 70 70 70 70 69 69 69 68 69 69 69 69 69 69 68 67 67 66 66 67 67 69 66 62 59 60 61 61 60 60 62 61 63 63 64 64 63 63 63 63 63 62 62 62
69 70 71 71 72 72 74 73 73 72 72 72 72 72 72 72 72 72 72 72 72 72 72 72 72 72 72 72 72 72 72 71 71 71 71 72 72 72 71 71 70 70 70 69 69 69 69 69 69 69 69 69 69 69 68 67 68 67 67 67 68 68 69 67 59 60 60 61 61 60 61 62 64 64 64 63 62 62 62 62 62 63 63 63 62
68 69 70 71 71 72 72 73 73 72 72 72 72 72 72 72 72 72 72 72 72 72 72 72 72 72 72 71 71 72 72 71 71 72 72 72 72 71 71 71 70 70 69 69 69 69 69 69 69 69 69 69 69 69 68 68 68 66 68 68 69 70 72 64 57 57 59 60 60 61 60 61 65 63 63 62 62 62 62 63 63 62 62 62 62
68 69 70 70 71 71 71 72 72 72 72 72 72 72 72 72 72 72 72 72 72 72 72 72 72 71 71 71 71 71 72 72 72 72 72 71 71 71 70 70 70 69 69 69 69 69 69 69 69 69 69 69 69 68 68 69 69 68 69 69 70 71 65 63 60 60 60 60 59 59 59 59 62 63 62 62 62 62 64 63 63 63 63 63 63
67 68 69 70 70 70 71 71 71 71 71 72 72 72 72 72 72 72 72 72 72 72 72 72 71 71 71 71 71 71 71 72 72 72 72 71 71 70 70 70 69 69 69 69 70 69 69 69 69 69 68 68 69 68 69 69 69 69 69 70 70 70 65 64 59 60 61 63 61 63 62 63 64 63 63 63 63 62 62 63 63 63 63 63 62
66 67 68 68 68 70 71 71 71 71 70 71 71 72 72 72 72 72 72 72 72 72 72 71 71 71 71 71 71 70 70 71 71 72 71 71 70 70 70 69 69 69 70 70 70 69 69 69 69 69 69 68 68 69 68 69 69 69 69 70 70 67 64 62 60 60 61 61 61 61 63 66 64 63 63 63 62 62 62 62 62 62 62 62 62
66 67 67 67 68 69 70 70 70 70 70 70 70 71 71 72 72 72 72 72 72 72 72 71 71 71 71 70 70 70 70 70 71 71 71 71 71 70 70 69 69 70 70 70 70 69 69 69 69 69 69 69 68 69 69 69 69 69 69 69 69 68 60 60 60 61 62 63 63 61 63 64 64 63 63 63 62 62 62 62 62 62 62 62 62
66 66 66 67 68 68 68 68 69 69 69 70 70 71 71 71 71 72 72 72 71 71 71 70 70 70 70 71 70 70 70 70 70 70 71 71 70 70 70 70 69 70 70 70 69 69 69 69 69 70 70 69 69 69 69 69 69 70 69 70 69 64 58 58 59 61 61 62 63 62 65 65 63 63 63 63 63 63 63 62 62 62 62 62 61
64 65 65 66 67 67 67 68 68 68 69 70 70 71 71 71 71 71 71 70 71 71 70 70 70 70 71 70 70 70 70 69 69 70 70 71 70 70 70 70 70 69 69 69 69 69 69 69 69 69 69 70 69 66 67 69 68 69 70 69 67 65 57 59 60 60 61 61 63 62 63 64 64 63 63 63 62 63 63 62 62 61 62 61 61
64 64 65 66 66 67 67 68 68 68 69 69 70 71 70 70 70 70 70 71 70 71 70 70 70 69 69 69 70 69 68 69 69 70 70 71 70 70 70 69 69 69 69 69 69 69 69 68 69 69 70 70 68 68 65 65 65 68 70 67 66 64 58 60 61 61 61 63 62 64 64 64 63 63 63 63 63 62 62 62 62 62 61 61 62
64 64 65 66 65 66 67 67 67 67 68 68 70 70 69 69 70 69 70 70 69 70 69 69 69 69 69 68 68 68 68 68 69 69 70 69 69 70 69 69 69 69 69 69 69 69 69 69 69 70 70 70 68 67 66 64 64 65 65 66 66 60 60 61 61 62 63 64 63 64 64 64 64 64 64 63 63 63 63 62 63 62 62 61 61
64 65 66 66 66 67 66 67 67 67 67 68 69 68 68 69 69 69 69 68 69 68 68 68 68 68 68 68 68 68 68 68 67 68 68 68 68 68 68 67 67 67 69 66 66 68 67 67 66 68 67 68 68 66 67 68 68 66 65 63 63 59 60 61 62 63 63 64 64 65 64 64 64 63 63 63 63 63 63 62 62 62 62 61 61
66 66 66 66 67 67 67 68 67 67 67 67 69 68 67 66 67 68 68 68 69 68 68 68 68 68 68 68 68 67 67 67 67 68 68 67 67 67 67 66 66 66 68 65 65 66 66 66 67 67 68 68 67 66 69 67 67 67 65 63 62 62 62 63 64 64 65 65 65 65 65 64 64 64 64 64 63 62 62 62 62 62 61 61 61
66 66 66 66 67 67 68 68 67 67 67 68 69 69 68 68 67 67 67 68 68 68 67 67 67 68 68 68 67 67 67 67 67 67 67 67 67 66 66 66 66 66 67 66 64 64 62 63 65 65 66 67 66 67 66 67 67 67 65 63 64 63 63 64 65 65 66 66 66 66 65 65 64 63 63 63 63 63 63 62 62 62 62 62 62
65 64 65 66 67 67 67 67 67 67 67 68 68 68 68 68 69 70 68 70 68 67 67 67 67 68 68 68 68 67 67 66 66 66 67 67 66 66 66 66 66 65 65 65 62 62 61 61 62 62 63 63 64 67 68 68 67 66 64 63 64 63 65 64 64 65 66 66 66 66 65 66 65 63 62 62 62 62 62 62 64 64 64 63 63
64 65 66 65 66 66 66 66 67 67 67 68 68 68 68 68 68 67 67 70 67 67 67 67 67 67 68 68 68 67 67 67 66 66 67 67 66 66 66 65 65 63 64 64 62 61 60 61 62 61 61 61 65 67 66 67 67 66 66 64 64 65 65 64 64 65 66 66 65 65 65 65 65 65 64 64 64 63 63 62 63 65 65 64 64
65 65 66 66 66 66 66 66 67 67 67 68 68 67 67 67 67 67 68 68 67 66 67 67 66 67 67 68 68 67 67 67 67 67 67 66 66 66 66 65 65 63 62 62 62 60 59 60 62 61 60 63 65 66 65 65 65 64 64 64 65 65 66 66 65 65 65 66 65 66 66 65 66 66 65 63 63 63 62 63 64 64 64 65 64
65 65 66 66 66 66 66 67 67 67 67 67 68 67 66 66 67 67 67 66 67 67 67 67 66 66 67 68 68 68 67 67 67 67 66 66 65 65 64 65 65 65 62 62 63 60 60 60 61 62 60 61 64 66 64 64 64 63 64 64 65 66 67 66 67 65 65 66 65 65 67 68 67 66 65 63 62 62 62 63 64 65 65 65 65
64 65 66 66 66 66 66 67 67 67 66 67 68 67 66 66 67 67 67 67 68 67 66 67 67 67 67 68 68 68 68 67 67 66 66 65 65 65 65 65 64 64 63 63 65 64 62 62 62 63 64 64 65 65 65 65 63 63 63 64 65 66 66 66 66 66 65 65 64 65 65 66 66 66 66 66 64 64 64 64 64 65 66 65 65
64 65 66 66 66 65 66 67 67 67 66 66 66 67 67 67 67 67 67 68 68 67 67 67 67 67 67 68 68 67 67 67 66 66 66 65 65 65 65 65 64 66 67 66 67 65 67 66 64 65 64 64 65 65 63 64 64 64 65 65 64 66 66 67 66 66 65 64 64 64 64 66 66 66 67 66 67 66 65 65 66 65 66 65 66
64 65 66 66 66 66 66 66 66 66 65 66 66 66 67 67 67 66 67 67 67 67 67 67 68 67 67 67 67 67 67 67 66 66 65 65 65 66 66 66 66 65 66 66 65 66 67 65 64 64 67 64 64 62 63 63 64 64 64 65 65 65 65 67 66 65 65 64 63 63 64 65 65 65 66 67 66 66 65 66 66 65 65 64 65
65 65 66 66 66 66 67 66 66 66 66 65 66 66 67 67 66 66 66 66 66 66 66 67 67 67 67 67 67 67 66 67 67 66 66 66 65 65 65 66 66 66 66 68 66 65 66 65 63 63 64 64 63 63 63 63 63 63 63 64 64 65 65 65 66 64 63 64 64 64 64 64 64 65 65 65 67 66 66 65 66 65 65 65 64
65 65 66 66 66 66 67 66 66 66 66 66 66 66 67 66 66 66 66 66 66 66 66 67 67 67 67 67 67 67 67 67 67 66 66 66 65 65 66 67 67 67 67 67 66 65 64 65 65 63 62 63 63 63 64 63 63 63 64 64 64 64 64 65 64 63 64 64 64 63 64 64 65 65 66 64 65 66 66 66 66 66 66 66 65
65 66 66 66 66 67 67 66 66 66 66 66 66 67 66 65 65 65 66 66 65 66 66 67 67 67 67 67 67 67 66 67 67 67 67 65 65 65 66 67 67 67 67 66 67 65 65 65 65 64 63 63 63 63 63 63 63 63 64 63 63 63 64 65 64 64 64 64 63 63 63 64 65 67 65 65 65 65 66 66 66 66 66 66 66
65 66 66 66 66 67 66 66 66 66 67 67 67 67 66 65 65 64 66 66 66 66 66 67 66 66 66 66 67 66 66 66 66 65 65 65 65 65 65 65 66 67 66 66 65 66 65 65 64 64 64 63 63 62 62 63 63 63 63 63 64 63 63 64 64 65 64 64 64 64 64 64 64 64 65 65 64 64 64 64 65 65 66 66 66
66 65 65 66 66 66 67 67 66 66 67 67 67 66 65 65 65 64 65 65 66 66 66 66 66 66 66 66 66 66 66 65 66 65 64 65 65 65 65 65 65 66 66 65 64 65 65 65 63 63 64 64 62 62 63 63 63 63 63 63 63 64 64 64 63 64 64 64 65 65 66 64 64 64 64 65 64 64 62 62 61 62 64 66 66
66 66 65 66 66 66 66 66 67 67 67 67 66 64 64 64 63 63 63 65 65 66 65 66 66 66 66 66 66 65 65 65 65 65 64 64 64 64 65 65 64 65 65 64 63 64 63 63 64 63 63 63 63 63 63 62 63 63 63 63 63 63 64 63 64 63 63 63 63 64 64 64 64 64 64 64 64 64 63 62 63 62 64 65 65
65 65 65 65 66 65 66 66 67 67 67 66 65 64 62 63 63 62 62 63 63 65 65 65 66 66 66 66 66 65 65 65 65 64 64 65 64 65 65 65 64 64 65 64 64 64 64 63 63 62 63 61 62 63 63 63 62 61 62 61 61 63 63 63 62 62 62 63 62 62 63 63 63 63 63 64 64 64 64 63 62 63 63 63 64
63 64 64 64 66 66 66 66 67 66 66 66 65 65 64 63 62 62 63 63 63 64 64 65 65 65 65 65 65 65 65 65 65 65 65 64 64 65 65 64 64 64 65 65 65 65 64 63 63 62 63 62 61 62 63 61 59 59 59 58 59 60 61 61 62 62 62 62 62 62 62 62 64 63 64 64 63 64 64 63 63 63 63 64 63
62 63 64 65 65 66 66 66 66 66 66 66 65 65 64 64 62 62 63 63 64 64 64 64 65 65 65 64 65 65 65 65 65 65 66 65 65 65 64 64 64 64 63 63 64 64 63 63 63 62 61 61 61 62 62 60 58 59 59 58 56 55 56 58 60 61 62 62 62 62 63 64 63 62 63 62 63 63 62 62 63 63 62 63 63
62 63 63 64 64 65 66 66 65 65 65 65 65 65 65 64 63 62 63 63 62 64 64 64 64 65 64 65 65 64 65 64 65 65 66 66 65 64 64 64 64 64 63 63 63 62 62 62 63 62 61 60 59 60 62 62 60 58 55 54 55 56 55 55 55 59 62 62 62 62 63 63 63 63 62 62 60 59 61 62 62 62 62 62 62
62 62 62 63 63 63 64 65 65 64 64 65 65 65 64 63 64 64 64 64 64 64 64 63 64 64 65 65 64 64 65 64 64 65 66 66 66 66 65 65 65 65 63 63 63 62 62 63 63 63 61 60 60 59 60 62 61 61 57 55 53 53 53 54 57 57 60 61 62 63 62 63 62 61 59 55 57 59 60 61 62 62 62 62 61
62 62 63 63 63 63 64 63 64 64 65 65 65 64 63 63 63 63 62 63 62 63 62 63 63 64 64 65 65 65 65 65 65 65 65 66 65 65 65 65 65 65 64 63 63 63 62 62 62 63 62 62 61 60 59 61 62 62 61 58 56 53 54 57 55 53 58 60 60 62 62 61 61 60 55 56 57 59 60 61 61 61 60 57 57
62 62 63 63 62 62 64 63 64 65 65 65 65 64 63 63 63 63 63 62 62 62 63 63 64 64 64 64 64 65 65 65 65 65 65 65 65 65 65 64 65 65 64 63 62 62 62 62 63 63 62 63 62 60 60 60 61 61 62 62 61 60 58 57 53 55 54 56 59 59 58 59 59 57 52 56 57 58 59 59 59 59 57 56 55
62 62 62 62 62 62 63 64 66 65 65 65 65 64 63 63 63 63 62 61 61 61 62 63 63 63 63 63 63 64 65 65 65 64 65 65 65 65 65 64 64 64 64 63 62 62 63 63 62 63 62 63 62 61 60 60 60 59 61 61 61 60 58 58 56 55 54 54 55 58 58 56 54 52 54 55 56 57 57 58 58 56 55 54 54
62 61 61 62 62 62 63 63 65 65 65 65 64 64 63 63 62 62 62 62 62 62 63 63 63 63 62 62 63 64 64 64 65 64 64 64 65 65 65 65 63 64 64 63 63 63 63 62 62 62 62 62 62 61 60 60 60 59 59 58 59 59 59 57 57 56 55 54 53 54 51 50 51 52 53 55 56 57 56 56 57 56 56 55 54
60 61 61 61 62 62 62 63 63 64 64 64 64 64 63 63 62 62 62 62 63 63 63 63 62 63 62 62 62 62 63 64 64 64 64 64 64 65 65 64 63 64 64 63 63 63 63 63 63 63 62 61 61 62 61 61 61 60 59 59 58 57 58 57 57 57 57 55 53 52 48 47 48 49 52 51 53 54 54 55 56 55 54 53 52
60 60 61 61 62 61 62 63 63 64 64 64 64 64 63 63 63 62 62 62 62 62 62 61 62 62 61 61 61 61 62 63 64 65 64 64 64 65 64 64 63 64 64 64 63 64 64 64 63 63 63 62 62 62 61 61 61 61 60 59 58 58 57 56 56 56 56 54 53 51 49 48 47 47 49 50 47 48 51 53 53 52 51 51 51